TimeCST,TemperatureF,Dew PointF,Humidity,Sea Level PressureIn,VisibilityMPH,Wind Direction,Wind SpeedMPH,Gust SpeedMPH,PrecipitationIn,Events,Conditions,WindDirDegrees,DateUTC
12:14 AM,37.4,33.8,87,30.03,10.0,NNE,9.2,-,N/A,,Clear,30,2012-11-09 06:14:00
12:33 AM,37.4,35.6,93,30.04,10.0,NNE,9.2,-,N/A,,Clear,30,2012-11-09 06:33:00
12:53 AM,37.4,35.6,93,30.04,10.0,NNE,9.2,-,N/A,,Clear,30,2012-11-09 06:53:00
1:13 AM,37.4,33.8,87,30.04,10.0,NNE,10.4,-,N/A,,Clear,30,2012-11-09 07:13:00
1:33 AM,37.4,33.8,87,30.04,10.0,NNE,9.2,-,N/A,,Clear,20,2012-11-09 07:33:00
1:53 AM,37.4,33.8,87,30.03,10.0,NNE,10.4,-,N/A,,Clear,30,2012-11-09 07:53:00
2:13 AM,37.4,33.8,87,30.03,10.0,NNE,13.8,-,N/A,,Clear,30,2012-11-09 08:13:00
2:33 AM,37.4,35.6,93,30.03,10.0,NNE,15.0,-,N/A,,Mostly Cloudy,30,2012-11-09 08:33:00
2:54 AM,37.4,35.6,93,30.04,10.0,NNE,12.7,-,N/A,,Mostly Cloudy,30,2012-11-09 08:54:00
3:13 AM,37.4,35.6,93,30.04,10.0,NNE,13.8,-,N/A,,Mostly Cloudy,30,2012-11-09 09:13:00
3:33 AM,37.4,35.6,93,30.04,10.0,NNE,13.8,-,N/A,,Overcast,30,2012-11-09 09:33:00
3:54 AM,37.4,33.8,87,30.03,10.0,NNE,13.8,-,N/A,,Mostly Cloudy,30,2012-11-09 09:54:00
4:13 AM,37.4,33.8,87,30.04,10.0,NNE,13.8,-,N/A,,Mostly Cloudy,30,2012-11-09 10:13:00
4:33 AM,37.4,33.8,87,30.04,10.0,NNE,13.8,-,N/A,,Mostly Cloudy,30,2012-11-09 10:33:00
4:54 AM,37.4,35.6,93,30.05,10.0,NNE,12.7,-,N/A,,Mostly Cloudy,30,2012-11-09 10:54:00
5:13 AM,37.4,35.6,93,30.04,10.0,NE,15.0,-,N/A,,Scattered Clouds,40,2012-11-09 11:13:00
5:54 AM,37.4,35.6,93,30.04,10.0,NE,13.8,18.4,N/A,,Mostly Cloudy,40,2012-11-09 11:54:00
6:13 AM,37.4,35.6,93,30.04,10.0,NE,12.7,-,N/A,,Overcast,40,2012-11-09 12:13:00
6:33 AM,37.4,35.6,93,30.04,10.0,NE,11.5,-,N/A,,Overcast,40,2012-11-09 12:33:00
6:54 AM,37.4,35.6,93,30.03,10.0,NE,12.7,-,N/A,,Overcast,40,2012-11-09 12:54:00
7:13 AM,37.4,35.6,93,30.03,10.0,NE,13.8,18.4,N/A,,Mostly Cloudy,50,2012-11-09 13:13:00
7:33 AM,37.4,35.6,93,30.03,10.0,NE,13.8,-,N/A,,Overcast,50,2012-11-09 13:33:00
7:53 AM,37.4,35.6,93,30.03,10.0,NE,16.1,-,N/A,,Overcast,50,2012-11-09 13:53:00
8:13 AM,37.4,35.6,93,30.04,10.0,NE,17.3,24.2,N/A,,Mostly Cloudy,50,2012-11-09 14:13:00
8:33 AM,39.2,35.6,87,30.04,10.0,ENE,18.4,25.3,N/A,,Overcast,60,2012-11-09 14:33:00
8:53 AM,39.2,35.6,87,30.04,10.0,NE,19.6,-,N/A,,Overcast,50,2012-11-09 14:53:00
9:13 AM,39.2,35.6,87,30.04,10.0,ENE,15.0,-,N/A,,Overcast,60,2012-11-09 15:13:00
9:33 AM,39.2,35.6,87,30.04,10.0,ENE,15.0,20.7,N/A,,Overcast,60,2012-11-09 15:33:00
9:53 AM,39.2,35.6,87,30.03,10.0,ENE,18.4,23.0,N/A,,Overcast,60,2012-11-09 15:53:00
10:13 AM,39.2,35.6,87,30.03,10.0,ENE,16.1,-,N/A,,Overcast,70,2012-11-09 16:13:00
10:33 AM,42.8,37.4,81,30.03,10.0,ENE,13.8,-,N/A,,Overcast,70,2012-11-09 16:33:00
10:53 AM,42.8,35.6,76,30.02,10.0,ENE,20.7,27.6,N/A,,Overcast,70,2012-11-09 16:53:00
11:13 AM,42.8,37.4,81,30.01,10.0,East,20.7,-,N/A,,Overcast,80,2012-11-09 17:13:00
11:34 AM,42.8,37.4,81,30.00,10.0,ENE,19.6,24.2,N/A,,Overcast,70,2012-11-09 17:34:00
11:53 AM,42.8,37.4,81,30.00,10.0,ENE,16.1,21.9,N/A,,Overcast,70,2012-11-09 17:53:00
12:13 PM,42.8,37.4,81,29.99,10.0,ENE,18.4,-,N/A,,Overcast,70,2012-11-09 18:13:00
12:34 PM,44.6,37.4,76,29.97,10.0,ENE,19.6,23.0,N/A,,Overcast,70,2012-11-09 18:34:00
12:53 PM,44.6,37.4,76,29.97,10.0,ENE,16.1,-,N/A,,Overcast,70,2012-11-09 18:53:00
1:13 PM,44.6,37.4,76,29.96,10.0,ENE,19.6,-,N/A,,Overcast,70,2012-11-09 19:13:00
1:33 PM,44.6,37.4,76,29.95,10.0,ENE,17.3,23.0,N/A,,Overcast,70,2012-11-09 19:33:00
1:53 PM,44.6,37.4,76,29.96,10.0,ENE,17.3,23.0,N/A,,Overcast,60,2012-11-09 19:53:00
2:13 PM,44.6,37.4,76,29.94,10.0,ENE,17.3,20.7,N/A,,Overcast,60,2012-11-09 20:13:00
2:34 PM,44.6,37.4,76,29.94,10.0,ENE,18.4,23.0,N/A,,Overcast,60,2012-11-09 20:34:00
2:53 PM,44.6,37.4,76,29.94,10.0,ENE,19.6,25.3,N/A,,Overcast,60,2012-11-09 20:53:00
3:13 PM,42.8,37.4,81,29.94,10.0,ENE,18.4,23.0,N/A,,Overcast,60,2012-11-09 21:13:00
3:34 PM,42.8,37.4,81,29.94,10.0,ENE,16.1,24.2,N/A,,Overcast,60,2012-11-09 21:34:00
3:53 PM,42.8,35.6,76,29.93,10.0,ENE,19.6,25.3,N/A,,Overcast,70,2012-11-09 21:53:00
4:13 PM,42.8,35.6,76,29.93,10.0,ENE,19.6,25.3,N/A,,Overcast,60,2012-11-09 22:13:00
4:33 PM,42.8,35.6,76,29.93,10.0,ENE,16.1,23.0,N/A,,Scattered Clouds,60,2012-11-09 22:33:00
4:53 PM,41.0,35.6,81,29.93,10.0,ENE,17.3,23.0,N/A,,Mostly Cloudy,60,2012-11-09 22:53:00
5:13 PM,41.0,35.6,81,29.94,10.0,ENE,17.3,23.0,N/A,,Overcast,60,2012-11-09 23:13:00
5:33 PM,41.0,35.6,81,29.94,10.0,ENE,17.3,24.2,N/A,,Overcast,60,2012-11-09 23:33:00
5:53 PM,41.0,35.6,81,29.92,10.0,ENE,20.7,26.5,N/A,,Mostly Cloudy,70,2012-11-09 23:53:00
6:13 PM,39.2,35.6,87,29.93,10.0,ENE,20.7,27.6,N/A,,Scattered Clouds,70,2012-11-10 00:13:00
6:33 PM,39.2,35.6,87,29.93,10.0,ENE,18.4,24.2,N/A,,Scattered Clouds,70,2012-11-10 00:33:00
6:53 PM,39.2,35.6,87,29.93,10.0,ENE,23.0,27.6,N/A,,Overcast,60,2012-11-10 00:53:00
7:13 PM,39.2,35.6,87,29.93,10.0,ENE,21.9,29.9,N/A,,Mostly Cloudy,70,2012-11-10 01:13:00
7:33 PM,39.2,35.6,87,29.93,10.0,ENE,24.2,28.8,N/A,,Mostly Cloudy,70,2012-11-10 01:33:00
7:53 PM,39.2,35.6,87,29.92,10.0,ENE,25.3,29.9,N/A,,Mostly Cloudy,70,2012-11-10 01:53:00
8:13 PM,39.2,35.6,87,29.93,10.0,ENE,23.0,31.1,N/A,,Scattered Clouds,70,2012-11-10 02:13:00
8:33 PM,39.2,35.6,87,29.94,10.0,ENE,18.4,25.3,N/A,,Mostly Cloudy,70,2012-11-10 02:33:00
8:53 PM,39.2,35.6,87,29.93,10.0,East,21.9,27.6,N/A,,Mostly Cloudy,80,2012-11-10 02:53:00
9:14 PM,39.2,35.6,87,29.93,10.0,East,20.7,-,N/A,,Mostly Cloudy,80,2012-11-10 03:14:00
9:33 PM,39.2,35.6,87,29.92,10.0,East,23.0,29.9,N/A,,Mostly Cloudy,80,2012-11-10 03:33:00
9:53 PM,39.2,35.6,87,29.92,10.0,East,21.9,27.6,N/A,,Scattered Clouds,80,2012-11-10 03:53:00
10:14 PM,39.2,35.6,87,29.91,10.0,East,19.6,29.9,N/A,,Mostly Cloudy,80,2012-11-10 04:14:00
10:33 PM,39.2,35.6,87,29.90,10.0,East,23.0,29.9,N/A,,Scattered Clouds,90,2012-11-10 04:33:00
11:13 PM,39.2,35.6,87,29.88,10.0,East,24.2,28.8,N/A,,Scattered Clouds,90,2012-11-10 05:13:00
11:33 PM,39.2,35.6,87,29.87,10.0,East,19.6,25.3,N/A,,Scattered Clouds,90,2012-11-10 05:33:00
11:53 PM,39.2,35.6,87,29.86,10.0,East,18.4,25.3,N/A,,Mostly Cloudy,90,2012-11-10 05:53:00